Temperature
17 17 17 17 17 17 17 17 17 17 17 17 17 18 18 18 17 17 17 17 17 17 17 17 17 17 17 16 16 16 16 16 16 16 16 16 16 15
17 17 17 17 17 17 17 17 17 17 17 17 17 17 17 17 17 17 17 17 17 17 17 17 17 16 16 16 16 16 16 16 16 16 16 15 15 15
17 17 17 17 17 17 17 17 17 17 17 17 17 17 17 17 17 17 17 17 17 16 16 16 16 16 16 16 16 16 15 15 15 15 15 15 15 15
17 17 17 17 16 16 16 16 16 16 16 16 17 17 16 16 16 16 16 16 16 16 16 16 16 16 15 15 15 15 15 15 15 15 15 15 15 15
17 17 16 16 16 16 16 16 16 16 16 16 16 16 16 16 16 16 16 16 16 16 16 16 16 15 15 15 15 15 15 15 15 15 15 15 14 14
16 16 16 16 16 16 16 16 16 16 16 16 16 16 16 16 15 15 15 15 15 15 15 15 15 15 15 15 15 15 15 15 14 14 14 14 14 14
16 16 16 16 16 15 15 15 15 15 15 15 15 15 15 15 15 15 15 15 15 15 15 15 15 15 15 15 15 14 14 14 14 14 14 14 14 14
15 15 15 15 15 15 15 15 15 15 15 15 15 15 15 15 14 14 14 14 14 15 14 15 14 14 14 14 14 14 14 14 14 14 14 14 13 13
15 15 15 15 15 15 15 15 15 15 15 14 14 14 14 14 14 14 14 14 14 14 14 14 14 14 14 14 14 14 14 13 13 13 13 13 13 13
15 15 15 15 14 14 15 15 15 15 15 14 14 14 14 14 14 14 14 14 14 14 14 13 14 14 14 14 14 13 13 13 13 13 13 13 13 13
15 14 14 14 14 14 14 14 14 14 14 14 14 14 13 13 13 13 13 13 13 14 13 13 13 13 13 13 13 13 13 13 13 13 13 13 12 12
14 14 14 14 14 14 14 14 14 14 14 13 13 13 13 13 13 13 13 13 13 13 13 13 13 13 13 13 13 13 13 13 13 12 12 12 12 12
14 14 14 14 14 14 13 13 13 13 13 13 13 13 13 13 13 12 12 12 12 12 12 12 12 12 12 12 12 12 12 12 12 12 12 12 12 12
14 14 14 13 13 13 13 13 13 13 13 13 12 12 13 13 12 12 12 12 12 12 12 12 12 12 12 12 12 12 12 12 12 12 12 12 11 11
14 13 13 13 13 13 13 13 12 12 12 12 12 12 12 12 12 12 12 12 12 12 12 12 12 12 11 11 11 11 11 11 12 12 11 11 11 11
13 13 13 13 13 12 12 12 12 12 12 12 11 11 11 11 11 11 11 11 11 12 11 11 11 11 11 11 11 11 11 11 11 11 11 11 11 10
12 12 12 12 12 12 12 12 11 11 11 11 11 11 11 11 11 11 11 11 11 11 11 11 11 11 11 11 11 11 11 11 11 11 10 10 10 10
12 12 12 11 11 11 11 11 11 11 11 10 10 10 10 10 10 11 11 11 11 11 11 11 11 11 11 11 11 10 10 10 10 10 10 10 10 10
11 11 11 11 11 11 11 10 10 10 10 10 10 10 10 10 10 10 10 10 10 10 10 10 10 10 10 10 10 10 10 10 10 10 10 10 9 9
11 11 11 11 11 10 10 10 10 10 10 10 10 10 10 10 10 10 10 10 10 10 10 10 10 10 10 10 10 10 10 10 10 9 9 9 9 9
11 11 10 10 10 10 10 10 10 10 10 9 9 9 9 9 9 9 9 9 9 9 9 9 9 9 9 10 9 9 9 9 9 9 9 9 8 8
10 10 10 10 10 10 10 10 10 9 9 9 9 9 9 9 9 9 9 9 9 9 9 9 9 9 9 9 9 9 9 9 9 9 8 8 8 8
10 10 10 10 10 10 9 9 9 9 9 9 9 9 9 9 8 8 8 8 8 8 8 8 8 8 8 8 8 8 8 8 8 8 8 8 8 8
Wind_Speed
4 4 3 3 3 3 4 4 4 4 5 4 3 3 4 5 7 6 7 9 10 11 12 13 13 14 13 13 12 12 12 12 12 12 12 12 11 11
3 3 3 3 2 2 3 3 4 4 5 4 4 3 3 4 6 6 7 9 9 10 11 11 12 12 13 12 12 11 11 11 11 11 11 11 11 11
3 3 4 3 3 3 2 2 3 4 5 5 3 3 3 4 3 4 6 6 6 9 9 10 11 11 12 12 11 11 10 11 11 11 11 11 11 11
4 3 4 3 3 3 3 3 3 3 4 5 4 2 3 4 3 4 4 5 6 8 8 8 9 10 10 10 10 10 10 10 11 11 11 11 11 11
4 4 5 4 4 4 4 3 3 3 2 3 4 2 2 2 2 3 3 3 4 5 6 8 7 8 8 8 8 9 9 10 10 10 11 11 11 11
4 5 5 5 6 5 4 4 3 2 2 2 3 3 2 2 1 2 3 3 4 3 3 4 5 6 7 8 8 9 9 9 10 10 10 10 10 10
5 5 5 6 7 5 4 4 3 3 2 3 2 2 2 2 2 2 3 3 4 3 2 3 3 3 5 7 8 9 9 10 10 9 9 9 10 10
5 5 4 5 6 6 5 6 5 5 4 4 3 3 4 3 3 3 2 2 3 3 2 4 2 4 4 5 8 9 10 10 10 10 10 9 9 9
4 4 4 4 4 3 5 5 6 7 7 6 5 5 4 5 4 4 3 3 4 3 2 4 3 4 5 5 7 8 9 10 10 10 9 9 8 8
4 5 5 4 4 4 3 4 4 4 5 5 6 6 6 5 5 5 5 4 3 3 2 3 3 4 4 4 7 8 8 9 10 9 9 9 8 7
4 4 4 4 5 4 3 3 4 4 4 4 5 6 6 5 4 2 1 1 3 3 2 2 2 2 2 3 5 7 8 9 9 9 9 8 7 7
3 3 4 4 5 4 4 4 4 4 3 2 2 3 3 4 4 4 4 3 2 3 3 2 2 1 2 2 2 3 4 6 7 8 8 8 6 4
3 3 4 5 4 4 4 4 6 4 2 2 2 2 2 2 2 3 3 4 3 4 3 3 2 2 2 2 3 2 2 2 3 4 6 6 6 5
3 3 3 5 4 4 4 4 4 2 1 1 2 2 3 3 3 3 4 5 5 5 5 4 3 3 2 1 2 2 2 2 2 2 3 4 5 6
3 4 4 4 2 2 3 3 2 1 1 2 3 4 3 3 3 2 3 3 3 4 4 4 3 3 3 3 2 2 1 2 1 1 2 2 3 3
2 3 3 2 1 1 2 2 1 2 2 3 4 3 2 2 2 2 2 2 2 3 3 3 4 4 3 3 3 3 2 2 1 2 2 1 2 3
1 1 1 2 2 2 2 2 1 1 1 2 2 2 2 2 3 2 2 2 2 2 3 2 2 2 3 3 2 3 2 2 2 2 1 1 2 3
1 0 1 1 1 2 2 2 2 1 1 1 1 2 2 2 2 2 2 2 2 3 3 2 1 1 1 2 4 4 3 3 2 2 2 2 2 3
1 1 1 2 2 2 2 2 2 2 2 1 2 2 2 2 2 2 2 1 2 2 2 2 1 2 2 3 3 3 3 3 2 2 2 2 3 3
1 1 2 2 2 2 2 2 2 2 1 1 1 1 1 1 1 2 2 2 2 1 1 1 1 2 3 4 3 3 3 4 3 3 2 2 2 3
2 2 2 2 2 2 2 2 1 1 1 1 1 1 1 1 1 1 1 2 1 1 1 2 3 3 1 1 0 2 3 3 3 3 2 1 1 1
2 2 2 2 1 1 1 1 1 1 1 1 1 1 1 1 1 1 1 1 1 1 1 2 2 2 1 1 1 2 2 2 2 2 1 2 2 2
2 2 1 1 1 1 1 0 0 1 0 0 1 1 1 1 1 1 1 0 0 0 1 1 2 1 0 1 1 1 2 2 1 2 3 4 2 3
Wind_Direction
238 241 242 254 236 218 210 201 201 250 267 255 249 242 222 222 231 231 230 237 239 240 240 239 239 240 241 242 242 241 241 242 245 247 250 253 254 258
237 240 249 253 255 246 230 219 206 215 248 252 240 246 232 239 243 237 242 248 247 244 239 242 245 243 242 243 244 240 239 239 241 243 247 249 251 253
250 239 250 252 253 252 241 229 225 213 242 269 259 248 231 241 246 243 254 251 251 246 241 243 246 248 245 241 240 240 239 240 242 244 245 247 249 251
247 243 251 256 260 255 247 245 242 224 223 261 278 265 248 238 236 246 256 260 252 253 246 241 241 242 241 236 237 237 238 241 245 246 247 248 249 250
238 240 248 242 251 256 247 250 251 248 223 236 264 264 262 249 257 270 270 270 261 261 243 240 237 236 232 234 231 232 236 240 245 248 250 251 250 249
244 241 242 234 240 246 247 243 243 246 238 240 259 266 269 267 237 269 288 280 275 268 253 237 238 237 240 239 238 237 235 238 243 247 250 250 250 250
257 252 248 247 246 244 246 236 230 234 231 233 251 272 276 279 259 254 268 284 280 257 253 255 243 246 245 245 242 243 240 241 243 245 246 248 249 249
251 263 262 256 254 251 248 239 220 219 221 220 241 242 252 253 257 256 258 276 277 260 220 262 234 248 245 242 245 245 243 244 242 242 246 249 249 248
237 249 268 269 264 248 252 255 247 237 226 216 221 236 237 229 233 249 243 240 247 253 208 261 256 252 251 256 246 242 242 244 242 245 247 247 248 247
239 234 238 253 253 239 230 239 249 253 241 229 222 233 234 224 218 227 236 247 264 266 191 232 253 252 260 256 249 242 246 247 245 245 245 246 249 249
261 253 241 239 250 227 211 226 256 274 267 244 240 244 242 229 205 197 238 245 273 274 227 210 248 260 266 265 271 257 253 253 252 250 248 248 247 244
282 273 257 244 241 213 209 213 237 257 267 288 284 282 261 245 225 205 208 218 237 260 242 199 231 227 301 287 281 290 273 266 255 250 247 245 242 232
270 271 266 261 253 236 222 217 230 238 237 235 253 273 282 273 262 231 210 204 214 239 233 184 202 194 209 280 301 289 270 268 268 262 253 248 243 223
262 270 268 264 256 242 230 240 246 236 213 221 238 254 259 263 263 249 234 227 224 232 227 187 192 196 194 237 282 301 297 273 231 223 251 268 261 249
279 289 291 275 253 254 253 257 249 219 211 230 243 252 252 254 261 267 269 253 256 253 240 210 195 194 187 209 232 248 286 298 254 225 234 241 240 236
315 315 314 310 326 318 312 297 266 230 224 239 248 262 275 273 257 244 250 252 262 287 280 246 216 198 212 223 212 238 230 240 263 258 246 246 257 244
289 346 7 11 5 349 335 315 307 317 283 269 258 271 278 271 264 245 238 232 221 243 278 289 265 233 213 203 213 233 237 238 245 242 222 255 263 250
150 192 268 279 272 283 287 300 321 320 296 277 257 253 260 266 267 256 240 225 226 236 243 249 226 26 350 295 225 221 236 236 245 243 214 224 263 272
151 239 253 257 261 266 273 277 285 282 277 269 261 255 254 257 254 251 244 234 239 245 246 239 199 180 220 272 285 225 215 240 233 243 231 219 237 262
247 253 257 262 260 259 262 267 273 284 290 287 285 279 256 242 244 262 256 230 227 246 280 292 249 220 213 224 246 269 232 215 217 230 244 247 257 269
267 274 267 261 263 260 261 260 263 273 276 269 277 270 260 243 255 260 255 241 218 214 247 275 273 268 219 115 304 297 294 266 227 212 211 215 291 307
254 263 270 274 265 260 269 269 282 300 310 306 291 286 283 260 260 261 226 201 233 237 259 291 321 7 81 145 238 270 294 322 335 338 297 207 196 222
233 242 252 263 272 270 251 252 342 338 318 284 293 294 307 312 284 274 281 251 239 281 310 340 358 15 23 183 225 263 286 307 356 13 350 333 296 261
Height
1526 1526 1525 1525 1524 1524 1525 1525 1525 1523 1522 1522 1523 1523 1523 1523 1523 1523 1523 1523 1522 1522 1522 1522 1521 1521 1520 1520 1520 1519 1519 1519 1518 1518 1518 1517 1517 1517
1523 1523 1522 1522 1522 1521 1521 1521 1521 1521 1519 1518 1519 1519 1519 1520 1519 1519 1519 1519 1518 1518 1517 1517 1516 1516 1516 1515 1515 1515 1514 1514 1514 1513 1513 1513 1512 1512
1520 1519 1519 1519 1519 1518 1518 1517 1517 1517 1516 1515 1515 1515 1515 1515 1515 1515 1515 1515 1514 1513 1513 1512 1511 1511 1511 1511 1511 1510 1510 1509 1509 1509 1508 1508 1508 1507
1516 1515 1515 1515 1515 1515 1514 1514 1513 1513 1513 1511 1511 1511 1511 1511 1510 1510 1510 1510 1509 1509 1508 1508 1507 1507 1507 1506 1506 1506 1505 1505 1504 1504 1503 1503 1503 1502
1512 1511 1511 1511 1510 1510 1510 1510 1509 1509 1509 1508 1507 1507 1507 1507 1506 1506 1506 1505 1505 1504 1503 1503 1503 1502 1502 1502 1502 1501 1501 1500 1500 1499 1498 1498 1498 1498
1508 1507 1507 1507 1506 1506 1505 1505 1505 1505 1505 1504 1503 1503 1503 1502 1502 1501 1501 1500 1500 1499 1498 1498 1498 1498 1498 1497 1497 1496 1496 1495 1495 1494 1494 1493 1493 1493
1504 1503 1502 1502 1502 1502 1501 1501 1500 1500 1500 1499 1499 1498 1498 1498 1497 1497 1496 1495 1495 1495 1494 1494 1494 1493 1493 1493 1492 1492 1491 1490 1490 1489 1489 1489 1488 1488
1499 1499 1498 1498 1498 1498 1497 1497 1496 1496 1495 1495 1494 1494 1493 1494 1493 1493 1492 1491 1490 1491 1490 1489 1489 1488 1488 1488 1488 1487 1486 1486 1485 1485 1484 1484 1484 1483
1495 1494 1494 1494 1493 1493 1492 1492 1492 1492 1492 1491 1490 1490 1489 1489 1489 1488 1488 1487 1486 1486 1486 1484 1484 1484 1484 1483 1483 1483 1482 1482 1481 1481 1480 1480 1479 1479
1491 1490 1489 1489 1489 1489 1488 1487 1487 1487 1487 1487 1486 1485 1485 1485 1485 1485 1484 1483 1483 1482 1482 1480 1480 1480 1480 1479 1479 1479 1478 1478 1477 1477 1476 1476 1475 1475
1487 1486 1486 1485 1485 1484 1484 1483 1483 1482 1482 1482 1482 1481 1481 1481 1481 1481 1480 1479 1478 1478 1478 1477 1476 1475 1475 1475 1475 1475 1474 1474 1474 1473 1473 1472 1471 1471
1483 1482 1482 1481 1481 1480 1479 1478 1478 1477 1478 1477 1477 1477 1477 1477 1476 1476 1476 1475 1474 1474 1474 1473 1473 1472 1472 1471 1471 1471 1471 1470 1470 1470 1469 1468 1467 1467
1479 1478 1478 1477 1477 1476 1475 1475 1474 1474 1473 1473 1472 1472 1472 1472 1472 1472 1472 1471 1471 1470 1471 1471 1470 1469 1469 1468 1468 1467 1467 1467 1466 1466 1465 1465 1464 1463
1476 1475 1474 1473 1472 1472 1471 1470 1470 1470 1469 1468 1468 1467 1468 1468 1468 1468 1467 1467 1467 1467 1468 1467 1466 1466 1465 1464 1464 1464 1463 1463 1463 1462 1462 1461 1460 1460
1474 1472 1471 1470 1469 1468 1467 1466 1466 1465 1464 1464 1463 1463 1463 1464 1464 1464 1463 1464 1463 1464 1464 1463 1463 1463 1463 1461 1461 1461 1460 1460 1460 1459 1458 1458 1456 1455
1471 1469 1469 1467 1466 1465 1463 1462 1462 1461 1460 1460 1460 1460 1460 1459 1459 1459 1459 1459 1459 1459 1460 1460 1460 1460 1459 1458 1458 1457 1457 1457 1457 1456 1455 1454 1453 1452
1468 1467 1465 1464 1462 1461 1460 1459 1458 1458 1457 1456 1456 1456 1455 1455 1455 1455 1456 1455 1455 1455 1456 1456 1457 1456 1456 1455 1454 1454 1454 1454 1454 1453 1452 1450 1450 1449
1465 1463 1462 1461 1460 1459 1458 1457 1455 1454 1454 1453 1453 1452 1452 1452 1451 1451 1452 1452 1452 1452 1452 1452 1452 1452 1452 1452 1452 1451 1451 1450 1450 1449 1449 1447 1445 1445
1462 1461 1460 1459 1458 1457 1456 1454 1453 1452 1452 1451 1450 1449 1449 1448 1448 1448 1448 1448 1448 1448 1448 1449 1448 1448 1448 1447 1448 1449 1448 1447 1446 1446 1445 1444 1442 1441
1460 1459 1457 1456 1455 1454 1453 1452 1451 1450 1449 1448 1447 1447 1446 1445 1445 1444 1444 1444 1444 1445 1445 1445 1445 1444 1444 1444 1444 1444 1445 1444 1443 1442 1441 1440 1439 1438
1457 1456 1455 1454 1453 1452 1451 1450 1449 1448 1447 1446 1445 1444 1444 1443 1442 1442 1442 1442 1442 1442 1441 1442 1442 1442 1441 1441 1441 1441 1441 1441 1440 1439 1438 1437 1435 1434
1455 1454 1453 1452 1451 1450 1449 1448 1446 1445 1444 1443 1443 1442 1442 1441 1440 1440 1439 1439 1439 1439 1439 1439 1439 1439 1438 1438 1437 1437 1437 1437 1437 1436 1435 1434 1433 1430
1452 1451 1451 1450 1449 1448 1447 1445 1444 1443 1442 1442 1441 1440 1440 1439 1439 1438 1437 1437 1437 1437 1436 1436 1437 1437 1436 1436 1435 1435 1435 1434 1433 1433 1432 1432 1431 1430